Location: ????
(30.2663°N, 31.2484°E)
Time: 04:00:14
(UTC+00:00)

Cosmos 1536 - Pass Details

Date: 27 September 2022
Orbit: 535 x 554 km, 82.5° (Epoch: 01 December)

Event Time Altitude Azimuth Distance (km) Brightness Sun altitude
Rises 02:54:59 0° 346° (NNW) 2,739 6.3 -11.8°
Reaches altitude 10° 02:57:14 10° 339° (NNW) 1,840 5.3 -11.4°
Maximum altitude 03:01:05 44° 268° (W) 777 3.1 -10.5°
Drops below altitude 10° 03:04:55 10° 195° (SSW) 1,825 5.3 -9.7°
Sets 03:07:08 0° 189° (S) 2,712 6.2 -9.2°
